Home   Weather   Uppsala   Past weeks

Flag for Sweden Past Weather in Uppsala, Sweden — Yesterday and Last 2 Weeks

Now
55 °F

Clear.


Feels Like: 53 °F
Forecast: 52 / 59 °F
Wind: 9 mph from South

Location: Stockholm / Arlanda

Current Time: Sep 27, 2016 at 9:04:27 PM

Latest Report: Sep 27, 2016 at 8:20 PM


Visibility: 10 mi

Pressure: 30.12 "Hg

Humidity: 88%

Dew Point: 52 °F

Location of UppsalaLocation

Past Weather in Uppsala — Graph

°F

Uppsala Temperature Yesterday

Maximum temperature yesterday: 66 °F (at 12:50 PM)
Minimum temperature yesterday: 50 °F (at 3:20 AM)
Average temperature yesterday: 57 °F

High & Low Weather Summary for the Past Weeks

 TemperatureHumidityPressure
High72 °F (Sep 13, 5:20 PM)100% (Sep 13, 1:50 AM)30.27 "Hg (Sep 13, 1:50 AM)
Low39 °F (Sep 17, 4:20 AM)45% (Sep 16, 1:50 PM)29.95 "Hg (Sep 23, 11:50 PM)
Average55 °F81%30.16 "Hg
* Reported Sep 12 7:20 PM — Sep 27 7:50 PM, Uppsala, Weather by CustomWeather, © 2016

Note: Actual official high and low records may vary slightly from our data, if they occured in-between our weather recording intervals... More about our weather records

Advertising

Uppsala Weather History for the Previous 24 Hours

Scroll right to see more
 ConditionsComfort  
Time TempWeatherWind HumidityBarometerVisibility
7:50 PM
Tue, Sep 27
55 °FClear.10 mph82%30.15 "Hg10 mi
7:20 PM55 °FClear.12 mph77%30.15 "Hg10 mi
6:50 PM57 °FClear.12 mph77%30.15 "Hg10 mi
6:20 PM57 °FSunny.13 mph72%30.18 "Hg10 mi
5:50 PM61 °FSunny.13 mph63%30.18 "Hg10 mi
5:20 PM61 °FSunny.15 mph63%30.18 "Hg10 mi
4:50 PM63 °FSunny.16 mph64%30.18 "Hg10 mi
4:20 PM64 °FSunny.14 mph64%30.18 "Hg10 mi
3:50 PM64 °FSunny.14 mph64%30.21 "Hg10 mi
3:20 PM64 °FSunny.13 mph60%30.21 "Hg10 mi
2:50 PM66 °FPassing clouds.12 mph56%30.21 "HgN/A
2:20 PM64 °FSunny.12 mph56%30.24 "Hg10 mi
1:50 PM64 °FSunny.12 mph60%30.24 "Hg10 mi
1:20 PM66 °FSunny.12 mph60%30.24 "Hg10 mi
12:50 PM63 °FSunny.12 mph68%30.24 "Hg10 mi
12:20 PM61 °FSunny.13 mph77%30.27 "Hg10 mi
11:50 AM61 °FSunny.10 mph72%30.27 "Hg10 mi
11:20 AM59 °FSunny.10 mph77%30.27 "Hg10 mi
10:50 AM57 °FSunny.9 mph88%30.27 "Hg10 mi
10:20 AM55 °FSunny.8 mph94%30.27 "Hg10 mi
9:50 AM55 °FPassing clouds.7 mph94%30.27 "HgN/A
9:20 AM54 °FPassing clouds.7 mph100%30.27 "HgN/A
8:50 AM54 °FFog.7 mph100%30.27 "Hg5 mi
8:20 AM54 °FPartly sunny.6 mph100%30.27 "Hg1 mi
7:50 AM52 °FFog.7 mph100%30.27 "Hg0 mi
7:20 AM54 °FFog.6 mph100%30.27 "Hg0 mi
6:50 AM54 °FFog.6 mph100%30.27 "Hg0 mi
6:20 AM54 °FFog.7 mph100%30.27 "Hg0 mi
5:50 AM54 °FFog.5 mph100%30.27 "Hg0 mi
5:20 AM54 °FFog.6 mph100%30.27 "Hg0 mi
4:50 AM54 °FFog.7 mph100%30.27 "Hg0 mi
4:20 AM54 °FFog.6 mph100%30.27 "Hg0 mi
3:50 AM54 °FFog.6 mph100%30.27 "Hg0 mi
3:20 AM54 °FFog.6 mph100%30.27 "Hg1 mi
2:50 AM52 °FFog.6 mph100%30.27 "Hg0 mi
2:20 AM50 °FFog.6 mph100%30.27 "Hg1 mi
1:50 AM50 °FLight fog.5 mph100%30.27 "Hg1 mi
1:20 AM50 °FFog.7 mph100%30.27 "Hg1 mi
12:50 AM52 °FClear.5 mph100%30.27 "Hg10 mi
12:20 AM52 °FClear.6 mph94%30.27 "Hg10 mi
11:50 PM
Mon, Sep 26
52 °FClear.6 mph100%30.27 "Hg10 mi
11:20 PM52 °FClear.5 mph100%30.27 "Hg10 mi
10:50 PM54 °FClear.6 mph94%30.27 "Hg10 mi
10:20 PM54 °FClear.5 mph94%30.27 "Hg10 mi
9:50 PM55 °FClear.6 mph88%30.27 "Hg10 mi
9:20 PM55 °FClear.6 mph88%30.27 "Hg10 mi
Weather by CustomWeather, © 2016

See weather overviewHow to use our weather pages